Location: Go�ngahuizen
(53.0821°N, 5.8849°E)
Time: 07:38:05
(UTC+00:00)

Cosmos 1908 - Pass Details

Date: 09 April 2020
Orbit: 511 x 531 km, 82.5° (Epoch: 02 June)

Event Time Altitude Azimuth Distance (km) Brightness Sun altitude
Rises 19:06:54 0° 182° (S) 2,642 6.6 -6.6°
Reaches altitude 10° 19:09:02 10° 179° (S) 1,762 5.7 -6.9°
Maximum altitude 19:12:51 65° 98° (E) 584 3.2 -7.4°
Drops below altitude 10° 19:16:45 10° 16° (NNE) 1,789 6.1 -7.9°
Sets 19:18:56 0° 14° (NNE) 2,686 7.0 -8.2°
